User: anonymous   Login
Location: Contre
(49.7477°N, 2.0963°E)
Time: 12:35:27
(UTC+00:00)
Language:

CZ-6A DEB - Orbit

View from above orbital plane
View from above orbital plane
View from above satellite
View from above satellite

Ground track
Ground track

The orbit data is extracted from the following two-line orbital elements,

1 54432U 22151FG  24053.92097721  .00003259  00000-0  20283-2 0  9996
2 54432  98.9793  56.7334 0195919 178.6770 181.4952 13.96585178 64972
Epoch (UTC): 22 February 2024 22:06:12
Eccentricity: 0.0195919
inclination: 98.9793°
perigee height: 763 km
apogee height: 1048 km
right ascension of ascending node: 56.7334°
argument of perigee: 178.6770°
revolutions per day: 13.96585178
mean anomaly at epoch: 181.4952°
orbit number at epoch: 6497

The dashed part of the orbit path shows where the satellite is in the earth's shadow,  

DLR